Wind_Speed
11 10 10 10 9 9 10 11 11 10 9 7 7 8 10 14 17 18 18 19 20 19 19 18 16 16 14 13 12 12 12 11 13 15 18 21 21 20 20 18 16 14 13
15 13 11 11 12 13 14 15 14 12 11 11 11 12 12 15 19 22 23 24 24 24 23 22 21 20 19 18 18 17 16 15 14 15 16 18 21 21 21 20 18 16 14
18 16 15 14 14 16 18 19 18 16 16 16 16 15 16 16 19 22 25 27 28 28 28 27 27 26 24 22 22 22 21 20 18 18 18 17 18 22 23 23 21 18 17
22 19 17 17 18 19 20 21 19 20 21 21 21 18 18 20 21 24 26 28 30 30 31 31 31 30 29 26 24 24 23 23 22 21 21 20 19 22 25 25 23 20 19
24 21 19 19 21 21 21 21 22 23 24 24 24 22 21 22 24 26 27 29 31 32 31 31 31 30 30 28 26 23 23 23 24 23 22 22 22 20 24 26 24 21 19
27 23 21 22 23 24 23 22 23 23 25 26 26 25 23 24 25 26 27 28 29 31 31 30 30 30 29 28 27 23 22 22 23 24 23 24 23 21 20 22 22 21 18
29 25 23 24 24 24 24 24 23 24 25 25 25 24 22 22 24 26 25 25 26 28 29 28 27 28 28 27 27 25 22 21 22 22 23 24 24 22 21 20 20 19 18
31 27 25 24 24 24 24 25 26 26 24 23 22 22 23 24 25 25 24 24 24 25 26 25 25 25 26 26 25 24 22 21 20 20 21 23 25 24 23 23 22 20 18
33 30 27 25 24 24 25 26 26 24 23 22 22 24 26 25 25 25 24 24 24 23 24 24 23 24 25 26 25 24 24 23 22 21 20 22 24 25 25 24 23 21 19
34 32 28 26 25 25 26 26 25 22 22 23 24 25 26 26 26 27 27 26 25 26 26 26 25 24 26 26 25 25 25 24 25 24 23 23 24 26 26 26 25 23 22
34 32 29 28 27 27 27 27 24 22 22 24 26 26 27 27 27 27 28 28 27 27 28 27 27 25 26 25 25 26 26 26 26 25 25 25 26 27 27 28 28 26 24
34 31 28 28 29 28 28 27 25 24 24 24 26 27 27 26 26 26 26 28 27 27 26 24 25 26 26 25 24 25 27 27 27 27 26 27 27 28 28 28 27 26 26
34 31 29 28 28 28 28 28 26 26 26 26 25 25 26 27 27 27 26 27 27 27 26 24 24 26 26 25 24 26 26 27 28 28 27 27 27 28 29 29 27 27 28
33 30 27 27 28 29 28 29 30 30 29 27 25 24 25 27 27 28 27 26 26 26 25 24 25 27 27 26 25 27 28 28 29 29 29 29 29 28 27 28 27 27 26
29 23 21 24 27 29 30 32 32 30 29 27 25 24 25 27 26 25 24 23 23 24 24 23 22 26 26 25 24 26 28 29 30 31 31 32 31 30 28 27 26 24 23
17 15 19 24 29 32 33 33 31 28 27 26 25 24 25 26 24 22 21 20 20 21 23 25 23 25 27 25 24 25 27 29 30 31 31 32 32 31 30 28 25 24 23
14 18 22 26 28 29 29 29 27 24 24 25 25 24 24 23 22 21 20 20 21 22 24 26 27 27 29 28 25 25 25 24 24 25 26 28 30 31 30 28 26 25 24
15 18 21 23 25 25 25 24 24 23 23 24 24 23 22 22 22 21 19 17 18 19 21 22 25 28 29 29 27 25 24 22 20 19 20 23 27 29 29 28 28 27 26
13 17 21 24 25 25 24 23 23 23 23 24 25 24 23 22 22 21 20 18 18 18 19 20 23 27 28 29 28 25 24 23 21 20 21 21 23 27 29 29 30 29 29
15 18 21 23 23 23 23 23 23 23 24 25 25 25 24 24 24 23 20 19 19 19 19 20 22 25 27 28 28 27 26 26 25 25 25 24 24 25 27 28 29 29 29
16 18 20 20 19 20 20 20 21 23 25 25 26 26 25 25 26 25 22 20 19 19 20 21 22 23 26 29 30 29 29 28 29 30 31 30 29 28 27 27 28 29 30
16 19 21 20 19 18 16 17 19 22 24 25 26 26 27 27 26 26 24 23 22 21 22 23 24 23 25 26 27 28 28 28 29 32 34 34 33 33 32 31 30 31 31
17 20 21 21 20 19 18 18 19 21 24 25 25 25 25 27 28 27 26 25 24 23 23 24 25 24 23 24 26 27 27 27 28 30 33 33 34 35 36 36 35 35 34
20 21 22 22 21 19 18 18 19 20 20 21 22 22 21 23 25 28 28 27 26 26 25 25 25 26 26 25 26 26 27 27 28 28 29 31 33 36 37 38 38 38 38
19 20 21 20 20 19 19 19 19 19 20 20 20 21 21 21 21 23 25 26 26 27 28 27 26 26 26 26 25 26 26 26 27 27 27 27 29 33 37 39 40 40 41
17 18 19 19 20 20 20 20 20 20 21 21 21 21 22 22 22 22 22 24 25 25 27 27 26 26 25 25 25 26 28 28 28 28 29 29 29 30 33 37 41 43 43
Wind_Direction
274 274 266 265 274 287 293 287 283 279 275 278 278 270 258 250 246 242 238 236 236 238 241 241 239 239 241 243 249 254 256 254 244 239 237 234 232 231 229 228 228 230 231
265 265 261 260 267 276 283 284 278 282 285 289 287 276 266 261 257 251 245 243 242 242 243 246 248 247 244 245 252 257 258 255 252 247 248 241 233 232 232 231 229 233 238
258 257 255 259 267 274 279 283 280 282 289 294 296 286 268 261 263 262 257 252 250 248 247 249 253 254 251 248 253 258 258 252 249 248 248 250 243 236 234 232 231 236 241
257 254 249 260 270 273 276 282 283 285 290 293 295 290 274 266 267 268 265 263 259 256 254 253 255 257 257 252 254 256 254 249 245 245 245 247 248 242 235 232 231 239 239
259 253 247 259 268 269 272 279 281 283 287 291 292 288 276 273 275 274 269 265 261 258 257 256 256 257 256 253 251 249 252 248 243 242 244 244 246 248 240 234 233 234 235
257 250 252 262 268 269 271 276 280 282 288 292 291 289 281 277 278 276 272 267 262 259 257 256 255 254 253 251 247 247 251 248 244 243 243 242 243 246 246 236 228 228 233
256 251 257 262 266 270 274 281 285 289 295 294 291 289 283 280 279 276 272 270 266 262 259 256 255 254 251 249 247 248 248 244 244 243 242 241 240 240 239 234 232 232 235
254 252 258 260 264 269 277 285 291 295 295 292 289 287 282 282 279 277 275 271 267 262 259 258 256 254 251 248 247 246 241 240 245 246 242 239 237 235 235 234 233 235 238
251 252 256 258 263 269 278 286 293 296 293 290 288 284 282 282 280 280 278 272 266 260 257 255 257 254 251 249 246 245 239 237 243 247 244 240 236 235 236 236 236 237 240
249 252 254 257 262 270 280 287 291 291 289 288 287 283 280 278 278 279 276 272 269 266 262 258 256 253 250 250 247 245 239 237 242 246 245 242 238 237 237 237 238 241 243
250 251 252 254 262 271 279 285 286 286 285 286 285 282 278 274 274 273 271 269 269 269 265 259 252 248 247 248 248 246 241 239 240 243 243 243 241 239 239 239 239 243 246
250 251 250 252 260 267 274 277 278 281 283 283 281 279 275 271 271 269 267 265 266 267 264 256 249 245 243 245 246 244 241 239 240 241 242 241 241 242 241 240 241 244 249
251 249 248 253 261 268 272 273 277 283 283 282 280 279 275 270 268 266 263 262 261 263 261 256 252 245 241 241 242 242 240 241 241 243 242 240 241 243 243 243 245 248 251
250 249 253 260 268 274 276 279 283 284 281 278 277 276 272 268 266 265 261 259 259 259 257 255 253 244 239 238 238 240 241 241 242 245 246 245 243 242 243 245 248 250 252
246 252 263 271 276 277 280 283 284 284 281 273 268 268 267 266 265 261 257 257 257 256 251 249 249 240 237 236 237 239 241 243 245 248 250 249 244 242 242 244 247 248 248
244 260 272 275 277 277 278 279 280 283 280 269 262 261 263 264 261 255 254 256 258 256 250 245 242 239 236 237 236 238 240 243 245 246 248 247 241 238 239 241 242 242 245
252 263 269 274 276 275 275 278 279 278 273 263 257 256 260 260 255 250 252 257 259 259 256 248 240 235 232 233 237 239 239 242 243 245 248 246 239 237 239 242 242 244 247
256 260 265 270 271 271 274 277 276 272 268 260 254 251 255 255 252 250 248 254 261 261 259 252 238 229 227 229 233 237 240 241 243 246 250 247 241 240 243 247 249 251 253
257 263 267 269 271 273 275 273 270 268 266 260 254 248 250 251 252 250 245 248 258 265 259 246 233 228 228 226 229 235 241 246 247 249 252 252 247 244 246 251 255 256 257
268 271 272 272 273 274 274 270 264 263 264 259 254 249 249 250 251 249 246 248 253 258 253 244 236 233 230 228 231 238 244 249 252 253 254 254 251 248 248 252 256 258 258
275 275 274 272 271 270 269 261 255 260 263 260 256 253 251 251 250 250 249 250 253 253 250 245 242 241 239 238 241 245 249 251 252 254 255 255 252 249 248 249 252 255 257
275 273 269 266 267 271 268 256 252 258 262 262 261 258 254 251 251 251 251 252 254 254 251 247 245 247 245 243 244 247 249 252 254 254 255 255 253 251 249 249 250 253 255
274 275 274 272 272 274 270 262 258 259 261 262 262 262 259 252 249 249 251 252 253 253 252 250 249 251 252 251 253 255 255 258 260 259 256 254 253 253 255 256 253 252 252
281 282 283 281 278 276 272 267 264 263 265 266 266 266 266 262 255 250 249 249 250 251 251 250 250 252 254 260 263 265 264 263 262 265 263 258 255 255 256 259 258 254 253
287 284 283 282 280 278 276 273 271 271 270 270 271 272 271 271 265 257 252 249 248 248 249 249 250 252 255 259 262 265 266 266 266 267 266 263 262 262 258 256 256 257 257
299 291 285 281 279 279 279 279 278 277 276 275 274 271 269 267 265 262 258 252 247 245 246 246 247 249 254 258 263 266 268 269 270 269 267 265 267 270 265 261 259 259 259
Height
5901 5900 5899 5899 5899 5898 5897 5896 5896 5895 5895 5894 5893 5892 5890 5889 5888 5888 5888 5889 5890 5891 5892 5893 5893 5893 5894 5895 5896 5897 5897 5897 5897 5897 5898 5899 5901 5903 5905 5906 5907 5908 5909
5897 5897 5896 5896 5895 5894 5894 5893 5893 5892 5892 5892 5891 5890 5889 5887 5886 5885 5884 5885 5886 5886 5887 5888 5890 5890 5891 5892 5893 5894 5894 5894 5894 5895 5895 5896 5897 5899 5902 5903 5905 5906 5907
5892 5892 5892 5892 5892 5891 5890 5890 5889 5889 5888 5888 5887 5887 5886 5884 5883 5882 5881 5880 5880 5881 5882 5884 5885 5886 5887 5887 5889 5890 5891 5891 5891 5891 5892 5892 5894 5896 5898 5900 5902 5904 5905
5887 5888 5888 5888 5888 5888 5887 5886 5886 5885 5884 5883 5883 5882 5881 5880 5879 5878 5876 5875 5875 5875 5876 5878 5879 5881 5882 5883 5884 5885 5886 5886 5887 5887 5888 5889 5890 5892 5894 5896 5899 5901 5902
5882 5883 5883 5883 5883 5883 5883 5883 5882 5881 5880 5879 5878 5877 5877 5876 5875 5873 5872 5870 5869 5869 5870 5872 5873 5875 5877 5878 5879 5880 5881 5882 5882 5883 5884 5885 5886 5888 5890 5892 5895 5897 5899
5876 5877 5878 5878 5877 5877 5878 5878 5878 5877 5877 5875 5874 5873 5872 5871 5870 5869 5867 5865 5863 5863 5864 5865 5867 5869 5870 5872 5874 5875 5876 5877 5878 5879 5880 5881 5883 5885 5886 5887 5890 5893 5895
5871 5871 5872 5872 5872 5872 5872 5872 5872 5872 5871 5869 5868 5867 5867 5866 5865 5864 5862 5860 5858 5858 5859 5859 5860 5862 5864 5866 5868 5870 5871 5873 5874 5875 5876 5877 5879 5881 5883 5884 5886 5889 5891
5865 5866 5866 5867 5867 5867 5867 5866 5865 5865 5864 5863 5862 5861 5861 5861 5859 5858 5857 5855 5854 5853 5854 5854 5855 5857 5859 5861 5863 5865 5866 5868 5870 5871 5872 5873 5875 5878 5879 5881 5883 5885 5887
5857 5859 5860 5861 5861 5861 5861 5860 5859 5859 5858 5857 5857 5856 5856 5855 5853 5853 5852 5850 5849 5848 5848 5849 5850 5852 5854 5856 5858 5860 5862 5864 5866 5867 5868 5869 5871 5873 5875 5877 5880 5882 5883
5850 5852 5854 5855 5854 5854 5854 5854 5854 5854 5853 5852 5851 5850 5850 5849 5848 5847 5846 5845 5845 5844 5844 5844 5845 5847 5849 5851 5854 5856 5857 5859 5861 5863 5864 5865 5867 5869 5871 5872 5875 5877 5879
5843 5845 5846 5848 5848 5848 5847 5847 5847 5847 5847 5846 5845 5844 5843 5842 5840 5840 5840 5839 5839 5838 5838 5838 5839 5841 5843 5845 5848 5850 5852 5854 5856 5858 5860 5861 5863 5865 5866 5867 5869 5872 5874
5836 5837 5839 5841 5842 5842 5842 5841 5841 5840 5840 5839 5838 5837 5836 5835 5833 5833 5833 5832 5832 5832 5831 5832 5833 5835 5837 5839 5842 5845 5847 5849 5851 5853 5855 5856 5858 5860 5862 5863 5864 5866 5868
5828 5829 5831 5833 5835 5836 5836 5835 5834 5833 5832 5831 5830 5829 5828 5827 5826 5826 5825 5825 5825 5825 5825 5826 5827 5829 5831 5833 5836 5839 5842 5844 5846 5848 5850 5851 5853 5855 5856 5858 5859 5860 5862
5820 5821 5823 5825 5827 5828 5829 5828 5827 5826 5825 5824 5823 5822 5821 5821 5819 5819 5818 5818 5818 5819 5819 5820 5821 5823 5825 5827 5830 5833 5836 5839 5841 5843 5844 5846 5848 5849 5851 5852 5853 5854 5856
5812 5814 5816 5819 5820 5821 5821 5820 5819 5818 5817 5817 5816 5815 5815 5814 5813 5812 5811 5811 5812 5812 5813 5814 5814 5816 5819 5821 5824 5827 5830 5833 5835 5836 5838 5839 5841 5843 5845 5846 5847 5848 5850
5804 5808 5811 5812 5813 5814 5813 5812 5811 5810 5809 5809 5808 5809 5809 5808 5807 5806 5805 5805 5806 5807 5807 5808 5809 5811 5813 5816 5818 5821 5824 5826 5828 5830 5831 5832 5834 5837 5839 5840 5841 5843 5844
5800 5803 5805 5806 5807 5806 5805 5804 5802 5801 5801 5801 5801 5802 5803 5802 5802 5801 5800 5800 5800 5801 5801 5802 5802 5805 5807 5810 5813 5816 5818 5820 5822 5823 5825 5826 5828 5830 5832 5834 5836 5837 5839
5797 5799 5800 5800 5800 5799 5798 5796 5795 5794 5794 5794 5795 5796 5797 5797 5797 5796 5795 5795 5795 5795 5796 5795 5796 5799 5802 5806 5809 5812 5814 5815 5817 5818 5820 5821 5823 5825 5827 5828 5830 5831 5833
5793 5794 5795 5794 5793 5791 5790 5789 5789 5788 5788 5788 5788 5789 5790 5791 5792 5792 5790 5790 5791 5791 5791 5791 5793 5795 5798 5802 5804 5807 5809 5811 5812 5814 5816 5816 5817 5819 5821 5822 5824 5826 5827
5788 5788 5787 5786 5785 5784 5783 5782 5782 5782 5782 5782 5782 5783 5784 5785 5786 5787 5786 5785 5787 5787 5787 5788 5790 5792 5795 5797 5799 5802 5804 5805 5807 5809 5811 5811 5812 5813 5815 5816 5818 5819 5820
5782 5782 5781 5780 5779 5778 5776 5776 5775 5776 5775 5775 5776 5777 5777 5778 5779 5780 5780 5781 5782 5783 5784 5785 5786 5787 5790 5792 5794 5796 5798 5800 5801 5803 5804 5805 5806 5808 5809 5810 5811 5812 5813
5779 5778 5777 5776 5774 5772 5771 5770 5770 5770 5769 5769 5769 5770 5770 5771 5772 5773 5774 5775 5777 5778 5780 5781 5781 5782 5784 5786 5788 5790 5791 5793 5794 5796 5796 5798 5800 5801 5802 5804 5805 5806 5807
5775 5773 5771 5770 5768 5767 5766 5766 5765 5764 5763 5763 5762 5762 5762 5763 5764 5765 5767 5768 5770 5772 5774 5775 5776 5777 5778 5780 5782 5783 5784 5786 5788 5788 5788 5790 5792 5793 5795 5797 5798 5799 5799
5770 5767 5765 5763 5761 5760 5761 5760 5760 5759 5758 5757 5757 5756 5756 5755 5756 5757 5759 5761 5763 5766 5768 5770 5771 5772 5774 5775 5777 5778 5779 5780 5781 5781 5781 5782 5783 5784 5786 5787 5789 5790 5790
5765 5762 5759 5757 5756 5755 5755 5755 5754 5753 5753 5753 5752 5751 5751 5750 5750 5750 5752 5754 5756 5758 5761 5763 5766 5767 5768 5770 5772 5773 5773 5774 5775 5775 5774 5774 5775 5775 5776 5777 5778 5779 5780
5760 5757 5754 5752 5751 5750 5749 5748 5747 5746 5746 5746 5745 5745 5745 5745 5745 5745 5746 5748 5750 5752 5754 5757 5760 5762 5764 5765 5766 5767 5768 5768 5768 5768 5768 5768 5767 5767 5767 5767 5768 5769 5770